Regional Weather Roundup
Issued by NWS San Angelo, TX

Home | Current Version | Previous Version | Text Only | Print | Product List | Glossary On
Versions: 1 2 3 4 5 6 7 8 9 10 11 12 13 14 15 16 17 18 19 20 21 22 23 24 25 26 27 28 29 30 31 32 33 34 35 36 37 38 39 40 41 42 43 44 45 46 47 48 49 50
000
ASUS44 KSJT 191402
RWRSJT
WEST CENTRAL TEXAS REGIONAL WEATHER ROUNDUP
NATIONAL WEATHER SERVICE SAN ANGELO TX
900 AM CDT SAT AUG 19 2017

NOTE: "FAIR" INDICATES FEW OR NO CLOUDS BELOW 12,000 FEET WITH NO
SIGNIFICANT WEATHER AND/OR OBSTRUCTIONS TO VISIBILITY.

TXZ049-054-064>066-071>073-076>078-098-099-113-114-127-128-139-140-
154-155-168>170-191500
...LOCATIONS ACROSS WEST CENTRAL TEXAS...

CITY           SKY/WX    TMP DP  RH WIND       PRES   REMARKS
SAN ANGELO     MOSUNNY   79  69  71 S9        30.07R
ABILENE        SUNNY     80  71  74 S8        30.06R
DYESS AFB      NOT AVBL
JUNCTION       SUNNY     78  70  76 S6        30.07R
SWEETWATER     SUNNY     80  70  70 S14       30.11R
BROWNWOOD      SUNNY     81  68  65 S3        30.06S
COLEMAN        SUNNY     81  68  64 S6        30.07R
SONORA         SUNNY     79  70  73 S7        30.13R
OZONA          NOT AVBL
BRADY          NOT AVBL
$$

TEXAS PANHANDLE/OKLAHOMA PANHANDLE

CITY           SKY/WX    TMP DP  RH WIND       PRES   REMARKS
AMARILLO       SUNNY     73  65  75 SW13      30.13R
BORGER         SUNNY     77  66  68 SW6       30.08S
CANADIAN       SUNNY     77  69  75 SW3       30.05S
DALHART        SUNNY     69  66  90 S6        30.13R
DUMAS          SUNNY     72  65  78 SW9       30.12R
GUYMON         NOT AVBL
HEREFORD       NOT AVBL
PAMPA          NOT AVBL
PERRYTON       SUNNY     75  70  84 S6        30.06S
$$

SOUTHERN PANHANDLE/SOUTH PLAINS/ROLLING PLAINS

CITY           SKY/WX    TMP DP  RH WIND       PRES   REMARKS
LUBBOCK        PTSUNNY   76  62  62 CALM      30.12R
SNYDER         MOSUNNY   76  69  77 S6        30.09S
CHILDRESS      SUNNY     81  68  64 S6        30.05R
SEMINOLE       NOT AVBL
$$

PERMIAN BASIN

CITY           SKY/WX    TMP DP  RH WIND       PRES   REMARKS
MIDLAND        CLOUDY    78  65  63 S14       30.10R
ODESSA         CLOUDY    77  66  68 S13       30.11R
WINK           CLOUDY    74  66  76 SE6       30.07R
$$

FAR WEST/SOUTHWEST MOUNTAINS/TRANS PECOS

CITY           SKY/WX    TMP DP  RH WIND       PRES   REMARKS
ALPINE         SUNNY     72  60  65 S3        30.24S
DRYDEN           N/A     77  68  73 NE3       30.06R
EL PASO        PTSUNNY   73  63  70 SE6       30.14R
FORT STOCKTON  CLOUDY    76  66  71 SW7       30.10R
GUADALUPE PASS NOT AVBL
MARFA          CLOUDY    68  62  81 S5        30.23R
PECOS          CLOUDY    74  66  76 CALM      30.07S
$$

DALLAS/FORT WORTH METROPLEX

CITY           SKY/WX    TMP DP  RH WIND       PRES   REMARKS
DFW AIRPORT    MOSUNNY   84  73  69 SW12      29.99R
FTW MEACHAM    SUNNY     82  74  76 SW6       30.01R
DAL-EXECUTIVE  SUNNY     84  72  67 VRB3      30.00R
GRAND PRAIRIE  SUNNY     82  70  65 S7        30.02R
ADDISON        SUNNY     82  72  69 SW6       30.01R
MESQUITE       SUNNY     79  73  83 S7        30.01R
LANCASTER      SUNNY     81  71  73 SW5       30.02S
$$

NORTH CENTRAL TEXAS

CITY           SKY/WX    TMP DP  RH WIND       PRES   REMARKS
SHRMAN/DENISON MOSUNNY   82  73  74 SW10      30.01S
GAINESVILLE    SUNNY     79  74  83 S6        30.02S
BRIDGEPORT     SUNNY     80  73  80 SW6       30.03R
DENTON         SUNNY     80  75  84 S8        30.00R
WAXAHACHIE     SUNNY     81  72  73 SW7       30.03S
GRANBURY       NOT AVBL
$$

WESTERN NORTH TEXAS

CITY           SKY/WX    TMP DP  RH WIND       PRES   REMARKS
WICHITA FALLS  SUNNY     81  71  71 S12       29.99S
VERNON         SUNNY     79  71  75 CALM      30.02S
BRECKENRIDGE   SUNNY     83  67  58 SW8       30.03S
COMANCHE       SUNNY     82  69  65 SW10      30.06R
$$

CENTRAL AND SOUTH CENTRAL TEXAS

CITY           SKY/WX    TMP DP  RH WIND       PRES   REMARKS
AUSTIN/BERGSTM MOSUNNY   82  75  79 SW8       30.03R
WACO           SUNNY     82  71  69 SW8       30.02R
HILLSBORO      SUNNY     82  71  71 SW9       30.03R
TEMPLE         MOSUNNY   82  72  71 SW9       30.04R
KILLEEN-GRAY   NOT AVBL
FORT HOOD      MOSUNNY   79  69  71 SW8       30.01R
GEORGETOWN     SUNNY     81  72  74 SW8       30.06R
LAGO VISTA     FAIR      80  72  78 W8        30.07R
SAN MARCOS     SUNNY     81  75  82 SW9       30.04R
NEW BRAUNFELS  SUNNY     80  75  84 SW9       30.02S
RANDOLPH AFB   MOSUNNY   80  77  89 SW3       30.04R
SAN ANTONIO    MOSUNNY   80  73  79 S7        30.05R
STINSON        MOSUNNY   82  75  79 SE3       30.02R
PLEASANTON     NOT AVBL
LA GRANGE      MOSUNNY   83  78  84 SW6       30.01S
GIDDINGS       MOSUNNY   80  74  81 SW6       30.04S
$$

EAST TEXAS

CITY           SKY/WX    TMP DP  RH WIND       PRES   REMARKS
PARIS          SUNNY     82  75  79 SW9       30.01R
CLARKSVILLE    NOT AVBL
TYLER          SUNNY     82  74  76 SW9       30.02R
LONGVIEW       SUNNY     83  76  79 W8        30.01R
PALESTINE      SUNNY     81  75  83 SW6       30.04R
NACOGDOCHES    SUNNY     81  77  89 W7        30.03S
$$

TEXAS HILL COUNTRY AND EDWARDS PLATEAU

CITY           SKY/WX    TMP DP  RH WIND       PRES   REMARKS
LLANO          SUNNY     81  72  74 CALM      30.08R
HORSESHOE BAY  FAIR      80  71  73 CALM      30.06R
KERRVILLE      MOSUNNY   76  73  90 S3        30.08R
FREDERICKSBRG  NOT AVBL
ROCKSPRINGS    NOT AVBL
HONDO          MOSUNNY   81  75  82 E5        30.05R
UVALDE         MOSUNNY   79  72  80 E8        30.05R
DEL RIO        SUNNY     81  70  69 E7        30.01R
$$

SOUTHEAST TEXAS

CITY           SKY/WX    TMP DP  RH WIND       PRES   REMARKS
COLLEGE STN    MOSUNNY   82  77  84 SW9       30.03R
CALDWELL       NOT AVBL
CROCKETT       NOT AVBL
BRENHAM        PTSUNNY   82  79  90 W5        30.04R
HUNTSVILLE     PTSUNNY   82  75  79 W8        30.03R
CONROE         MOSUNNY   83  77  82 VRB7      30.03R
HOUSTON BUSH   MOSUNNY   85  78  80 W6        30.02R
HOUSTON HOBBY  MOSUNNY   86  77  74 W6        30.02R
PERLAND        MOSUNNY   85  77  77 VRB3      30.04R
WHARTON        MOSUNNY   81  78  92 CALM      30.03R
$$

THE UPPER TEXAS COAST

CITY           SKY/WX    TMP DP  RH WIND       PRES   REMARKS
ORANGE         MOSUNNY   83  80  90 CALM      30.04S
PORT ARTHUR    SUNNY     82  79  90 W3        30.02S
GALVESTON      MOSUNNY   85  80  85 SW3       30.03R
ANGLETON       MOSUNNY   84  80  88 CALM      30.02R
BAY CITY       PTSUNNY   83  80  90 CALM      30.02R
$$

TEXAS COASTAL BEND, RIO GRANDE PLAINS DEEP SOUTH TEXAS

CITY           SKY/WX    TMP DP  RH WIND       PRES   REMARKS
VICTORIA       MOSUNNY   83  77  82 W3        30.02R
BEEVILLE       FAIR      82  80  93 CALM      30.02R
ROCKPORT         N/A     79  76  90 S7        30.00R
PORT ARANSAS   SUNNY     84  76  77 S6        30.00R
PORT LAVACA    MOSUNNY   82  77  85 CALM      30.02R
CORPUS CHRISTI MOSUNNY   84  76  76 S7        30.00R
KINGSVILLE NAS SUNNY     85  78  80 SE10      30.00R
COTULLA        SUNNY     81  74  79 E8        30.01R
LAREDO         MOSUNNY   82  74  76 SE10      30.00R
BROWNSVILLE    SUNNY     83  79  88 SE6       29.99R
PORT ISABEL    SUNNY     85  78  80 S9        29.98R
HEBBRONVILLE   NOT AVBL
MCALLEN        SUNNY     84  76  76 SE9       29.99R
WESLACO        NOT AVBL
FALFURRIAS     SUNNY     82  76  81 CALM      30.00R
EDINBURG       SUNNY     84  75  74 SE6       30.00R
$$



USA.gov is the U.S. government's official web portal to all federal, state and local government web resources and services.